Location: Grange Rosano
(44.4500°N, 6.9667°E)
Time: 08:58:40
(UTC+00:00)

SME Rocket - Pass Details

Date: 26 May 2022
Orbit: 551 x 2650 km, 99.9° (Epoch: 01 July)

Event Time Altitude Azimuth Distance (km) Brightness Sun altitude
Exits shadow 01:24:37 43° 235° (SW) 874 3.4 -19.3°
Maximum altitude 01:25:12 46° 261° (W) 851 3.5 -19.3°
Drops below altitude 10° 01:29:50 10° 335° (NNW) 2,339 6.5 -18.9°
Sets 01:32:38 0° 341° (NNW) 3,523 7.5 -18.6°
